Location: Barruelo
(41.2448°N, 3.8231°W)
Time: 23:40:15
(UTC+00:00)

NOSS 2-3 (C) - Visible Passes

Search period start: 13 March 2026 00:00
Search period end: 23 March 2026 00:00
Orbit: 455 x 1720 km, 63.3° (Epoch: 13 March)

Date Brightness Start Highest point End Pass type
(mag) Time Alt. Az. Time Alt. Az. Time Alt. Az.
13 Mar 6.8 02:25:28 14° NNE 02:26:08 14° NE 02:29:06 10° ENE visible
13 Mar 4.7 04:12:32 15° NNW 04:17:05 66° NE 04:24:29 10° SE visible
13 Mar 2.8 19:54:45 10° SW 19:58:15 89° NW 19:59:26 39° NNE visible
14 Mar 5.6 03:24:26 26° N 03:26:49 39° NE 03:33:22 10° ESE visible
14 Mar 5.0 05:11:51 10° NW 05:17:14 41° WSW 05:24:27 10° S visible
14 Mar 3.6 19:05:03 10° S 19:08:14 33° ESE 19:11:23 10° NE visible
14 Mar 5.8 20:56:18 10° W 20:58:33 16° NW 20:59:16 15° NNW visible
15 Mar 6.3 02:36:32 23° NE 02:36:32 23° NE 02:41:36 10° E visible
15 Mar 4.4 04:23:37 26° NW 04:27:01 71° WSW 04:34:41 10° SSE visible
15 Mar 4.7 20:04:59 10° WSW 20:08:08 32° NW 20:11:23 10° NNE visible
16 Mar 7.1 01:48:54 10° ENE 01:48:54 10° ENE 01:49:00 10° ENE visible
16 Mar 4.6 03:36:01 62° NNE 03:36:47 69° NE 03:44:13 10° SE visible
16 Mar 5.7 05:23:08 13° WNW 05:27:08 23° WSW 05:32:55 10° SSW visible
16 Mar 3.0 19:14:27 10° SW 19:17:57 83° NW 19:21:26 10° NNE visible
17 Mar 5.9 02:48:42 31° E 02:48:42 31° E 02:53:08 10° ESE visible
17 Mar 4.9 04:35:50 37° W 04:36:56 40° WSW 04:44:05 10° S visible
17 Mar 6.0 20:16:06 10° WNW 20:18:15 15° NW 20:20:29 10° N visible
18 Mar 5.1 03:48:46 46° S 03:48:46 46° S 03:54:20 10° SSE visible
18 Mar 6.2 05:35:56 11° WSW 05:36:52 12° WSW 05:39:11 10° SW visible
18 Mar 4.9 19:24:42 10° WSW 19:27:48 31° NW 19:31:01 10° NNE visible
19 Mar 6.6 03:01:54 19° SE 03:01:54 19° SE 03:03:55 10° SE visible
19 Mar 6.1 04:49:05 19° SW 04:49:05 19° SW 04:52:26 10° SSW visible
20 Mar 6.7 04:02:18 15° S 04:02:18 15° S 04:03:40 10° S visible
20 Mar 6.0 19:35:51 10° WNW 19:37:55 15° NW 19:40:02 10° N visible
